| time (UTC) | temp F | wind direction | speed MPH | gust MPH | rain 1hr in | rain 24hr in | rain mn in | humidity % | barometer mb |
| 20260903192734 | 85 | 167 | 4.0 | 9.0 | 0.00 | 0.00 | 0.00 | 34 | 1018.9 |
| 20260903192234 | 85 | 146 | 4.0 | 9.0 | 0.00 | 0.00 | 0.00 | 34 | 1019.0 |
| 20260903191734 | 85 | 125 | 3.0 | 9.0 | 0.00 | 0.00 | 0.00 | 33 | 1018.9 |
| 20260903191235 | 85 | 205 | 3.0 | 9.0 | 0.00 | 0.00 | 0.00 | 34 | 1019.1 |
| 20260903190234 | 85 | 192 | 4.0 | 8.0 | 0.00 | 0.00 | 0.00 | 35 | 1019.1 |
| 20260903185733 | 85 | 192 | 4.0 | 9.0 | 0.00 | 0.00 | 0.00 | 35 | 1019.2 |
| 20260903185232 | 85 | 142 | 4.0 | 13.0 | 0.00 | 0.00 | 0.00 | 35 | 1019.2 |
| 20260903184730 | 85 | 110 | 4.0 | 13.0 | 0.00 | 0.00 | 0.00 | 32 | 1019.4 |
| 20260903184230 | 86 | 155 | 2.0 | 8.0 | 0.00 | 0.00 | 0.00 | 34 | 1019.4 |
| 20260903183724 | 85 | 157 | 2.0 | 6.0 | 0.00 | 0.00 | 0.00 | 35 | 1019.4 |
| 20260903183224 | 85 | 141 | 3.0 | 6.0 | 0.00 | 0.00 | 0.00 | 35 | 1019.6 |
| 20260903182725 | 84 | 173 | 3.0 | 9.0 | 0.00 | 0.00 | 0.00 | 36 | 1019.8 |
| 20260903182223 | 84 | 169 | 3.0 | 9.0 | 0.00 | 0.00 | 0.00 | 34 | 1019.9 |
| 20260903181221 | 84 | 169 | 3.0 | 9.0 | 0.00 | 0.00 | 0.00 | 35 | 1020.1 |
| 20260903175719 | 84 | 157 | 2.0 | 10.0 | 0.00 | 0.00 | 0.00 | 36 | 1020.2 |
| 20260903175221 | 84 | 101 | 1.0 | 11.0 | 0.00 | 0.00 | 0.00 | 36 | 1020.2 |
| 20260903174712 | 83 | 91 | 2.0 | 11.0 | 0.00 | 0.00 | 0.00 | 36 | 1020.2 |
| 20260903174211 | 83 | 169 | 4.0 | 11.0 | 0.00 | 0.00 | 0.00 | 36 | 1020.4 |
| 20260903173710 | 83 | 165 | 3.0 | 11.0 | 0.00 | 0.00 | 0.00 | 36 | 1020.4 |
| 20260903173211 | 83 | 146 | 3.0 | 8.0 | 0.00 | 0.00 | 0.00 | 37 | 1020.4 |
| 20260903172710 | 82 | 122 | 2.0 | 7.0 | 0.00 | 0.00 | 0.00 | 36 | 1020.4 |
| 20260903172210 | 81 | 151 | 2.0 | 8.0 | 0.00 | 0.00 | 0.00 | 38 | 1020.2 |
| 20260903171708 | 81 | 232 | 3.0 | 10.0 | 0.00 | 0.00 | 0.00 | 36 | 1020.2 |
| 20260903171207 | 81 | 159 | 4.0 | 11.0 | 0.00 | 0.00 | 0.00 | 38 | 1020.4 |
| 20260903170706 | 82 | 175 | 3.0 | 11.0 | 0.00 | 0.00 | 0.00 | 38 | 1020.4 |
| 20260903170206 | 83 | 177 | 1.0 | 5.0 | 0.00 | 0.00 | 0.00 | 35 | 1020.4 |
| 20260903165706 | 82 | 111 | 1.0 | 3.0 | 0.00 | 0.00 | 0.00 | 39 | 1020.4 |
| 20260903165207 | 82 | 113 | 1.0 | 4.0 | 0.00 | 0.00 | 0.00 | 40 | 1020.2 |
| 20260903164706 | 82 | 339 | 1.0 | 4.0 | 0.00 | 0.00 | 0.00 | 37 | 1020.1 |
| 20260903164207 | 82 | 80 | 1.0 | 3.0 | 0.00 | 0.00 | 0.00 | 40 | 1020.2 |
| 20260903163706 | 81 | 115 | 2.0 | 5.0 | 0.00 | 0.00 | 0.00 | 39 | 1020.2 |
| 20260903163205 | 81 | 115 | 2.0 | 5.0 | 0.00 | 0.00 | 0.00 | 39 | 1020.4 |
| 20260903162203 | 80 | 120 | 2.0 | 7.0 | 0.00 | 0.00 | 0.00 | 39 | 1020.5 |
| 20260903161700 | 80 | 123 | 2.0 | 7.0 | 0.00 | 0.00 | 0.00 | 40 | 1020.5 |
| 20260903161202 | 80 | 120 | 1.0 | 4.0 | 0.00 | 0.00 | 0.00 | 42 | 1020.5 |
| 20260903160657 | 79 | 102 | 0.0 | 2.0 | 0.00 | 0.00 | 0.00 | 41 | 1020.5 |
| 20260903160156 | 79 | 69 | 1.0 | 2.0 | 0.00 | 0.00 | 0.00 | 41 | 1020.5 |
| 20260903155156 | 78 | 86 | 0.0 | 2.0 | 0.00 | 0.00 | 0.00 | 42 | 1020.5 |
| 20260903154657 | 78 | 71 | 0.0 | 2.0 | 0.00 | 0.00 | 0.00 | 41 | 1020.5 |
| 20260903154156 | 77 | 36 | 0.0 | 2.0 | 0.00 | 0.00 | 0.00 | 41 | 1020.5 |
| 20260903153656 | 77 | 62 | 0.0 | 0.0 | 0.00 | 0.00 | 0.00 | 41 | 1020.6 |
| 20260903153156 | 77 | 64 | 0.0 | 0.0 | 0.00 | 0.00 | 0.00 | 42 | 1020.6 |
| 20260903152656 | 76 | 20 | 0.0 | 0.0 | 0.00 | 0.00 | 0.00 | 45 | 1020.5 |
| 20260903152157 | 76 | 33 | 0.0 | 0.0 | 0.00 | 0.00 | 0.00 | 45 | 1020.5 |
| 20260903151152 | 75 | 11 | 0.0 | 0.0 | 0.00 | 0.00 | 0.00 | 46 | 1020.5 |
| 20260903150650 | 74 | 11 | 0.0 | 0.0 | 0.00 | 0.00 | 0.00 | 45 | 1020.6 |
| 20260903150150 | 74 | 11 | 0.0 | 0.0 | 0.00 | 0.00 | 0.00 | 45 | 1020.6 |
| 20260903145648 | 74 | 11 | 0.0 | 2.0 | 0.00 | 0.00 | 0.00 | 46 | 1020.6 |
| 20260903145148 | 74 | 11 | 0.0 | 2.0 | 0.00 | 0.00 | 0.00 | 46 | 1020.6 |
| 20260903144145 | 74 | 67 | 0.0 | 1.0 | 0.00 | 0.00 | 0.00 | 46 | 1020.6 |
| 20260903142645 | 72 | 9 | 0.0 | 0.0 | 0.00 | 0.00 | 0.00 | 46 | 1020.5 |
| 20260903142145 | 71 | 9 | 0.0 | 0.0 | 0.00 | 0.00 | 0.00 | 46 | 1020.5 |
| 20260903141142 | 70 | 9 | 0.0 | 0.0 | 0.00 | 0.00 | 0.00 | 48 | 1020.4 |
| 20260903140640 | 70 | 9 | 0.0 | 0.0 | 0.00 | 0.00 | 0.00 | 46 | 1020.2 |
| 20260903140140 | 69 | 9 | 0.0 | 0.0 | 0.00 | 0.00 | 0.00 | 49 | 1020.2 |
| 20260903135640 | 69 | 9 | 0.0 | 0.0 | 0.00 | 0.00 | 0.00 | 47 | 1020.2 |
| 20260903134641 | 68 | 9 | 0.0 | 0.0 | 0.00 | 0.00 | 0.00 | 47 | 1020.0 |
| 20260903134140 | 68 | 9 | 0.0 | 0.0 | 0.00 | 0.00 | 0.00 | 47 | 1020.0 |
| 20260903133640 | 69 | 9 | 0.0 | 2.0 | 0.00 | 0.00 | 0.00 | 46 | 1020.0 |
| 20260903133140 | 69 | 9 | 0.0 | 2.0 | 0.00 | 0.00 | 0.00 | 46 | 1019.9 |
| 20260903132640 | 70 | 207 | 1.0 | 3.0 | 0.00 | 0.00 | 0.00 | 43 | 1019.8 |
| 20260903132141 | 69 | 207 | 2.0 | 4.0 | 0.00 | 0.00 | 0.00 | 43 | 1019.8 |
| 20260903131640 | 69 | 207 | 1.0 | 4.0 | 0.00 | 0.00 | 0.00 | 43 | 1019.8 |
| 20260903131139 | 68 | 222 | 1.0 | 3.0 | 0.00 | 0.00 | 0.00 | 45 | 1019.7 |
| 20260903130137 | 70 | 203 | 1.0 | 2.0 | 0.00 | 0.00 | 0.00 | 40 | 1019.6 |
| 20260903125637 | 71 | 203 | 1.0 | 3.0 | 0.00 | 0.00 | 0.00 | 39 | 1019.6 |
| 20260903125136 | 71 | 203 | 2.0 | 4.0 | 0.00 | 0.00 | 0.00 | 39 | 1019.6 |
| 20260903124636 | 71 | 203 | 2.0 | 4.0 | 0.00 | 0.00 | 0.00 | 39 | 1019.4 |
| 20260903124136 | 71 | 196 | 2.0 | 4.0 | 0.00 | 0.00 | 0.00 | 39 | 1019.6 |
| 20260903123636 | 71 | 196 | 1.0 | 3.0 | 0.00 | 0.00 | 0.00 | 39 | 1019.4 |
| 20260903123136 | 71 | 196 | 1.0 | 3.0 | 0.00 | 0.00 | 0.00 | 38 | 1019.4 |
| 20260903122634 | 70 | 196 | 1.0 | 3.0 | 0.00 | 0.00 | 0.00 | 39 | 1019.4 |
| 20260903122134 | 70 | 196 | 1.0 | 3.0 | 0.00 | 0.00 | 0.00 | 40 | 1019.4 |
| 20260903121628 | 70 | 196 | 1.0 | 3.0 | 0.00 | 0.00 | 0.00 | 40 | 1019.3 |
| 20260903120626 | 71 | 197 | 1.0 | 2.0 | 0.00 | 0.00 | 0.00 | 39 | 1019.2 |
| 20260903120125 | 71 | 197 | 1.0 | 2.0 | 0.00 | 0.00 | 0.00 | 38 | 1019.2 |
| 20260903114621 | 72 | 197 | 1.0 | 3.0 | 0.00 | 0.00 | 0.00 | 38 | 1019.3 |
| 20260903114122 | 71 | 241 | 1.0 | 2.0 | 0.00 | 0.00 | 0.00 | 38 | 1019.2 |
| 20260903113622 | 71 | 241 | 1.0 | 2.0 | 0.00 | 0.00 | 0.00 | 38 | 1019.2 |
| 20260903113123 | 71 | 248 | 0.0 | 2.0 | 0.00 | 0.00 | 0.00 | 38 | 1019.1 |
| 20260903112617 | 71 | 202 | 0.0 | 0.0 | 0.00 | 0.00 | 0.00 | 39 | 1019.2 |
| 20260903112116 | 71 | 200 | 0.0 | 0.0 | 0.00 | 0.00 | 0.00 | 39 | 1019.2 |
| 20260903111615 | 71 | 200 | 0.0 | 0.0 | 0.00 | 0.00 | 0.00 | 40 | 1019.2 |
| 20260903111116 | 71 | 200 | 0.0 | 0.0 | 0.00 | 0.00 | 0.00 | 38 | 1019.2 |
| 20260903110115 | 71 | 200 | 2.0 | 4.0 | 0.00 | 0.00 | 0.00 | 39 | 1019.3 |
| 20260903105612 | 72 | 200 | 2.0 | 4.0 | 0.00 | 0.00 | 0.00 | 39 | 1019.3 |
| 20260903105113 | 72 | 200 | 2.0 | 3.0 | 0.00 | 0.00 | 0.00 | 38 | 1019.2 |
| 20260903103103 | 72 | 200 | 1.0 | 4.0 | 0.00 | 0.00 | 0.00 | 39 | 1019.4 |
| 20260903102559 | 71 | 190 | 1.0 | 4.0 | 0.00 | 0.00 | 0.00 | 41 | 1019.4 |
| 20260903102100 | 70 | 271 | 1.0 | 3.0 | 0.00 | 0.00 | 0.00 | 43 | 1019.3 |
| 20260903101056 | 71 | 254 | 0.0 | 0.0 | 0.00 | 0.00 | 0.00 | 41 | 1019.4 |
| 20260903100556 | 71 | 254 | 0.0 | 0.0 | 0.00 | 0.00 | 0.00 | 41 | 1019.4 |
| 20260903095553 | 70 | 259 | 0.0 | 0.0 | 0.00 | 0.00 | 0.00 | 43 | 1019.6 |
| 20260903095052 | 70 | 259 | 0.0 | 1.0 | 0.00 | 0.00 | 0.00 | 41 | 1019.6 |
| 20260903094550 | 70 | 259 | 1.0 | 4.0 | 0.00 | 0.00 | 0.00 | 41 | 1019.6 |
| 20260903094051 | 70 | 259 | 2.0 | 4.0 | 0.00 | 0.00 | 0.00 | 41 | 1019.4 |
| 20260903085543 | 69 | 306 | 0.0 | 0.0 | 0.00 | 0.00 | 0.00 | 43 | 1019.6 |
| 20260903085042 | 70 | 306 | 0.0 | 1.0 | 0.00 | 0.00 | 0.00 | 44 | 1019.6 |
| 20260903084041 | 70 | 306 | 0.0 | 0.0 | 0.00 | 0.00 | 0.00 | 40 | 1019.6 |
| 20260903083540 | 70 | 306 | 0.0 | 0.0 | 0.00 | 0.00 | 0.00 | 39 | 1019.6 |
| 20260903083040 | 70 | 306 | 0.0 | 0.0 | 0.00 | 0.00 | 0.00 | 41 | 1019.6 |
| 20260903082538 | 70 | 306 | 0.0 | 0.0 | 0.00 | 0.00 | 0.00 | 40 | 1019.7 |
| 20260903082036 | 70 | 306 | 0.0 | 0.0 | 0.00 | 0.00 | 0.00 | 40 | 1019.7 |
| 20260903081035 | 71 | 309 | 0.0 | 2.0 | 0.00 | 0.00 | 0.00 | 39 | 1019.8 |
| 20260903080532 | 71 | 309 | 0.0 | 2.0 | 0.00 | 0.00 | 0.00 | 38 | 1019.8 |
| 20260903075532 | 72 | 275 | 0.0 | 0.0 | 0.00 | 0.00 | 0.00 | 39 | 1019.7 |
| 20260903075030 | 72 | 275 | 0.0 | 0.0 | 0.00 | 0.00 | 0.00 | 38 | 1019.7 |
| 20260903074530 | 71 | 275 | 1.0 | 3.0 | 0.00 | 0.00 | 0.00 | 37 | 1019.8 |
| 20260903074030 | 71 | 275 | 1.0 | 3.0 | 0.00 | 0.00 | 0.00 | 37 | 1019.8 |
| 20260903073527 | 71 | 269 | 1.0 | 3.0 | 0.00 | 0.00 | 0.00 | 38 | 1019.8 |
| 20260903073029 | 71 | 271 | 2.0 | 3.0 | 0.00 | 0.00 | 0.00 | 37 | 1019.8 |
| 20260903072526 | 71 | 270 | 2.0 | 4.0 | 0.00 | 0.00 | 0.00 | 38 | 1019.8 |
| 20260903072025 | 71 | 273 | 1.0 | 4.0 | 0.00 | 0.00 | 0.00 | 38 | 1019.9 |
| 20260903071018 | 71 | 271 | 1.0 | 3.0 | 0.00 | 0.00 | 0.00 | 40 | 1019.9 |
| 20260903070518 | 72 | 271 | 0.0 | 3.0 | 0.00 | 0.00 | 0.00 | 38 | 1019.9 |
| 20260903065515 | 73 | 254 | 0.0 | 2.0 | 0.00 | 0.00 | 0.00 | 37 | 1019.8 |
| 20260903065014 | 73 | 254 | 1.0 | 2.0 | 0.00 | 0.00 | 0.00 | 35 | 1019.8 |
| 20260903064515 | 73 | 192 | 0.0 | 2.0 | 0.00 | 0.00 | 0.00 | 35 | 1019.9 |
| 20260903064013 | 73 | 182 | 0.0 | 1.0 | 0.00 | 0.00 | 0.00 | 35 | 1019.8 |
| 20260903063512 | 73 | 182 | 0.0 | 3.0 | 0.00 | 0.00 | 0.00 | 35 | 1019.8 |
| 20260903063011 | 73 | 182 | 0.0 | 3.0 | 0.00 | 0.00 | 0.00 | 35 | 1019.8 |
| 20260903062509 | 73 | 165 | 0.0 | 2.0 | 0.00 | 0.00 | 0.00 | 35 | 1019.8 |
| 20260903062008 | 73 | 165 | 0.0 | 1.0 | 0.00 | 0.00 | 0.00 | 34 | 1019.7 |
| 20260903061508 | 74 | 165 | 0.0 | 1.0 | 0.00 | 0.00 | 0.00 | 35 | 1019.8 |
| 20260903061008 | 75 | 165 | 0.0 | 2.0 | 0.00 | 0.00 | 0.00 | 35 | 1019.8 |
| 20260903060510 | 75 | 165 | 1.0 | 3.0 | 0.00 | 0.00 | 0.00 | 34 | 1019.8 |
| 20260903055505 | 75 | 207 | 0.0 | 1.0 | 0.00 | 0.00 | 0.00 | 34 | 1019.8 |
| 20260903054001 | 76 | 207 | 2.0 | 5.0 | 0.00 | 0.00 | 0.00 | 31 | 1019.6 |
| 20260903053502 | 77 | 209 | 2.0 | 5.0 | 0.00 | 0.00 | 0.00 | 31 | 1019.7 |
| 20260903052958 | 77 | 189 | 2.0 | 7.0 | 0.00 | 0.00 | 0.00 | 31 | 1019.7 |
| 20260903051954 | 77 | 191 | 3.0 | 6.0 | 0.00 | 0.00 | 0.00 | 30 | 1019.7 |
| 20260903051455 | 77 | 215 | 3.0 | 7.0 | 0.00 | 0.00 | 0.00 | 31 | 1019.6 |
| 20260903050955 | 77 | 191 | 3.0 | 7.0 | 0.00 | 0.00 | 0.00 | 31 | 1019.7 |
| 20260903050455 | 76 | 200 | 2.0 | 6.0 | 0.00 | 0.00 | 0.00 | 32 | 1019.7 |
| 20260903045952 | 77 | 188 | 2.0 | 5.0 | 0.00 | 0.00 | 0.00 | 34 | 1019.8 |
| 20260903045452 | 77 | 216 | 2.0 | 5.0 | 0.00 | 0.00 | 0.00 | 33 | 1019.8 |
| 20260903043953 | 76 | 205 | 2.0 | 4.0 | 0.00 | 0.00 | 0.00 | 35 | 1019.8 |
| 20260903043452 | 76 | 207 | 2.0 | 4.0 | 0.00 | 0.00 | 0.00 | 35 | 1019.9 |
| 20260903042953 | 76 | 206 | 2.0 | 3.0 | 0.00 | 0.00 | 0.00 | 35 | 1019.8 |
| 20260903041948 | 77 | 206 | 2.0 | 5.0 | 0.00 | 0.00 | 0.00 | 35 | 1019.8 |
| 20260903041449 | 76 | 208 | 2.0 | 5.0 | 0.00 | 0.00 | 0.00 | 36 | 1019.8 |
| 20260903040949 | 76 | 193 | 1.0 | 4.0 | 0.00 | 0.00 | 0.00 | 36 | 1019.8 |
| 20260903040449 | 76 | 207 | 1.0 | 4.0 | 0.00 | 0.00 | 0.00 | 37 | 1019.7 |
| 20260903035948 | 76 | 212 | 1.0 | 3.0 | 0.00 | 0.00 | 0.00 | 37 | 1019.7 |
| 20260903035450 | 76 | 205 | 1.0 | 3.0 | 0.00 | 0.00 | 0.00 | 38 | 1019.7 |
| 20260903034448 | 77 | 205 | 1.0 | 3.0 | 0.00 | 0.00 | 0.00 | 37 | 1019.7 |
| 20260903033949 | 76 | 196 | 0.0 | 3.0 | 0.00 | 0.00 | 0.00 | 37 | 1019.6 |
| 20260903033449 | 77 | 196 | 0.0 | 0.0 | 0.00 | 0.00 | 0.00 | 40 | 1019.6 |
| 20260903032948 | 78 | 196 | 0.0 | 1.0 | 0.00 | 0.00 | 0.00 | 38 | 1019.4 |
| 20260903032449 | 78 | 196 | 1.0 | 4.0 | 0.00 | 0.00 | 0.00 | 38 | 1019.3 |
| 20260903031948 | 78 | 196 | 1.0 | 4.0 | 0.00 | 0.00 | 0.00 | 35 | 1019.1 |
| 20260903030449 | 79 | 201 | 2.0 | 4.0 | 0.00 | 0.00 | 0.00 | 35 | 1019.0 |
| 20260903025949 | 79 | 200 | 2.0 | 4.0 | 0.00 | 0.00 | 0.00 | 35 | 1019.0 |
| 20260903025449 | 79 | 209 | 2.0 | 4.0 | 0.00 | 0.00 | 0.00 | 36 | 1018.9 |
| 20260903024449 | 78 | 211 | 2.0 | 4.0 | 0.00 | 0.00 | 0.00 | 36 | 1018.6 |
| 20260903023949 | 78 | 211 | 2.0 | 5.0 | 0.00 | 0.00 | 0.00 | 37 | 1018.6 |
| 20260903023448 | 78 | 158 | 2.0 | 5.0 | 0.00 | 0.00 | 0.00 | 36 | 1018.5 |
| 20260903022949 | 78 | 217 | 2.0 | 3.0 | 0.00 | 0.00 | 0.00 | 37 | 1018.5 |
| 20260903022448 | 78 | 204 | 2.0 | 3.0 | 0.00 | 0.00 | 0.00 | 37 | 1018.5 |
| 20260903021949 | 78 | 204 | 1.0 | 3.0 | 0.00 | 0.00 | 0.00 | 37 | 1018.4 |
| 20260903021449 | 78 | 196 | 1.0 | 4.0 | 0.00 | 0.00 | 0.00 | 39 | 1018.4 |
| 20260903020948 | 79 | 196 | 1.0 | 4.0 | 0.00 | 0.00 | 0.00 | 37 | 1018.5 |
| 20260903020449 | 79 | 200 | 0.0 | 3.0 | 0.00 | 0.00 | 0.00 | 37 | 1018.5 |
| 20260903015948 | 79 | 200 | 0.0 | 3.0 | 0.00 | 0.00 | 0.00 | 37 | 1018.4 |
| 20260903015448 | 80 | 200 | 0.0 | 3.0 | 0.00 | 0.00 | 0.00 | 37 | 1018.4 |
| 20260903014949 | 81 | 200 | 1.0 | 4.0 | 0.00 | 0.00 | 0.00 | 34 | 1018.4 |
| 20260903013949 | 81 | 191 | 3.0 | 7.0 | 0.00 | 0.00 | 0.00 | 33 | 1018.4 |
| 20260903013448 | 81 | 171 | 3.0 | 7.0 | 0.00 | 0.00 | 0.00 | 34 | 1018.3 |
| 20260903012949 | 81 | 190 | 2.0 | 6.0 | 0.00 | 0.00 | 0.00 | 33 | 1018.4 |
| 20260903011948 | 82 | 193 | 3.0 | 8.0 | 0.00 | 0.00 | 0.00 | 33 | 1018.4 |
| 20260903011448 | 82 | 204 | 3.0 | 8.0 | 0.00 | 0.00 | 0.00 | 33 | 1018.4 |
| 20260903010949 | 82 | 243 | 3.0 | 9.0 | 0.00 | 0.00 | 0.00 | 33 | 1018.5 |
| 20260903010449 | 82 | 240 | 3.0 | 9.0 | 0.00 | 0.00 | 0.00 | 33 | 1018.5 |
| 20260903005948 | 82 | 161 | 3.0 | 7.0 | 0.00 | 0.00 | 0.00 | 34 | 1018.5 |
| 20260903005449 | 82 | 173 | 2.0 | 5.0 | 0.00 | 0.00 | 0.00 | 33 | 1018.4 |
| 20260903004949 | 83 | 194 | 1.0 | 4.0 | 0.00 | 0.00 | 0.00 | 34 | 1018.4 |
| 20260903004449 | 83 | 196 | 2.0 | 5.0 | 0.00 | 0.00 | 0.00 | 33 | 1018.4 |
| 20260903003949 | 83 | 236 | 3.0 | 7.0 | 0.00 | 0.00 | 0.00 | 32 | 1018.5 |
| 20260903002949 | 83 | 195 | 2.0 | 7.0 | 0.00 | 0.00 | 0.00 | 32 | 1018.6 |
| 20260903002448 | 84 | 207 | 1.0 | 6.0 | 0.00 | 0.00 | 0.00 | 33 | 1018.5 |
| 20260903001949 | 84 | 198 | 1.0 | 5.0 | 0.00 | 0.00 | 0.00 | 33 | 1018.5 |
| 20260903001448 | 84 | 277 | 2.0 | 7.0 | 0.00 | 0.00 | 0.00 | 32 | 1018.5 |
| 20260903000948 | 84 | 195 | 2.0 | 7.0 | 0.00 | 0.00 | 0.00 | 33 | 1018.5 |
| 20260903000448 | 84 | 183 | 2.0 | 6.0 | 0.00 | 0.00 | 0.00 | 33 | 1018.5 |
| 20260902235949 | 84 | 217 | 2.0 | 7.0 | 0.00 | 0.00 | 0.00 | 34 | 1018.5 |
| 20260902235448 | 84 | 185 | 3.0 | 7.0 | 0.00 | 0.00 | 0.00 | 33 | 1018.8 |
| 20260902234948 | 85 | 196 | 4.0 | 12.0 | 0.00 | 0.00 | 0.00 | 32 | 1018.8 |
| 20260902234449 | 85 | 200 | 3.0 | 12.0 | 0.00 | 0.00 | 0.00 | 30 | 1018.6 |
| 20260902233448 | 86 | 185 | 2.0 | 7.0 | 0.00 | 0.00 | 0.00 | 32 | 1018.6 |
| 20260902232949 | 86 | 194 | 3.0 | 11.0 | 0.00 | 0.01 | 0.00 | 31 | 1018.8 |
| 20260902232448 | 85 | 216 | 4.0 | 11.0 | 0.00 | 0.01 | 0.00 | 31 | 1018.8 |
| 20260902231449 | 85 | 191 | 4.0 | 9.0 | 0.00 | 0.06 | 0.00 | 32 | 1018.6 |
| 20260902230948 | 85 | 196 | 5.0 | 10.0 | 0.00 | 0.06 | 0.00 | 31 | 1018.8 |
| 20260902230449 | 86 | 207 | 3.0 | 10.0 | 0.00 | 0.06 | 0.00 | 30 | 1018.9 |
| 20260902225448 | 85 | 196 | 4.0 | 11.0 | 0.00 | 0.06 | 0.00 | 32 | 1018.9 |
| 20260902224449 | 86 | 190 | 5.0 | 10.0 | 0.00 | 0.06 | 0.00 | 31 | 1019.1 |
| 20260902223443 | 87 | 236 | 4.0 | 11.0 | 0.00 | 0.09 | 0.00 | 31 | 1019.0 |
| 20260902222942 | 87 | 175 | 4.0 | 15.0 | 0.00 | 0.13 | 0.00 | 31 | 1019.1 |
| 20260902221942 | 87 | 126 | 3.0 | 8.0 | 0.00 | 0.14 | 0.00 | 37 | 1019.0 |
| 20260902220942 | 85 | 150 | 2.0 | 9.0 | 0.00 | 0.20 | 0.00 | 38 | 1019.0 |
| 20260902220443 | 86 | 132 | 2.0 | 8.0 | 0.00 | 0.21 | 0.00 | 38 | 1019.2 |
| 20260902215440 | 86 | 142 | 4.0 | 12.0 | 0.00 | 0.27 | 0.00 | 37 | 1019.3 |
| 20260902214941 | 86 | 134 | 4.0 | 12.0 | 0.00 | 0.27 | 0.00 | 37 | 1019.4 |
| 20260902214438 | 86 | 188 | 3.0 | 8.0 | 0.00 | 0.27 | 0.00 | 39 | 1019.3 |
| 20260902213939 | 86 | 161 | 2.0 | 7.0 | 0.00 | 0.27 | 0.00 | 38 | 1019.4 |
| 20260902213438 | 86 | 128 | 2.0 | 7.0 | 0.00 | 0.27 | 0.00 | 39 | 1019.4 |
| 20260902212939 | 87 | 148 | 4.0 | 8.0 | 0.00 | 0.27 | 0.00 | 37 | 1019.6 |
| 20260902212437 | 87 | 140 | 4.0 | 9.0 | 0.00 | 0.27 | 0.00 | 37 | 1019.7 |
| 20260902211936 | 87 | 169 | 4.0 | 9.0 | 0.00 | 0.27 | 0.00 | 36 | 1019.8 |
| 20260902211436 | 87 | 146 | 3.0 | 9.0 | 0.00 | 0.27 | 0.00 | 38 | 1019.8 |
| 20260902210936 | 87 | 153 | 5.0 | 11.0 | 0.00 | 0.27 | 0.00 | 37 | 1019.8 |
| 20260902205934 | 87 | 200 | 4.0 | 10.0 | 0.00 | 0.27 | 0.00 | 38 | 1019.9 |
| 20260902205434 | 87 | 118 | 3.0 | 8.0 | 0.00 | 0.27 | 0.00 | 39 | 1019.9 |
| 20260902204935 | 87 | 148 | 3.0 | 8.0 | 0.00 | 0.27 | 0.00 | 38 | 1020.0 |
| 20260902204432 | 87 | 192 | 3.0 | 7.0 | 0.00 | 0.27 | 0.00 | 38 | 1020.2 |
| 20260902203932 | 87 | 145 | 4.0 | 8.0 | 0.00 | 0.27 | 0.00 | 40 | 1020.2 |
| 20260902203433 | 87 | 156 | 4.0 | 9.0 | 0.00 | 0.27 | 0.00 | 39 | 1020.2 |
| 20260902202933 | 87 | 161 | 4.0 | 10.0 | 0.00 | 0.27 | 0.00 | 39 | 1020.2 |
| 20260902202432 | 87 | 136 | 3.0 | 10.0 | 0.00 | 0.27 | 0.00 | 38 | 1020.2 |
| 20260902201932 | 87 | 223 | 2.0 | 8.0 | 0.00 | 0.27 | 0.00 | 39 | 1020.2 |
| 20260902201433 | 87 | 165 | 3.0 | 7.0 | 0.00 | 0.27 | 0.00 | 41 | 1020.5 |
| 20260902200433 | 86 | 117 | 4.0 | 11.0 | 0.00 | 0.27 | 0.00 | 40 | 1020.4 |
| 20260902195932 | 86 | 184 | 4.0 | 11.0 | 0.00 | 0.27 | 0.00 | 40 | 1020.6 |
| 20260902195433 | 86 | 110 | 3.0 | 7.0 | 0.00 | 0.27 | 0.00 | 41 | 1020.6 |
| 20260902194931 | 85 | 203 | 3.0 | 8.0 | 0.00 | 0.27 | 0.00 | 41 | 1020.6 |
| 20260902193930 | 85 | 169 | 3.0 | 7.0 | 0.00 | 0.27 | 0.00 | 42 | 1020.8 |
| 20260902193431 | 86 | 136 | 3.0 | 6.0 | 0.00 | 0.27 | 0.00 | 40 | 1020.9 |